DL7MAP-13 Weather Reports


Display with metric or nautical units.
time (UTC)temp
F
wind
direction
speed
MPH
gust
MPH
rain 1hr
in
rain 24hr
in
rain mn
in
humidity
%
barometer
mb
20260905081715 65 0.0 0.0 0.00 0.00 0.00 71 1009.5
20260905080215 64 0.0 0.0 0.00 0.00 0.00 73 1008.8
20260905074716 64 0.0 0.0 0.00 0.00 0.00 74 1009.9
20260905073217 64 0.0 0.0 0.00 0.00 0.00 75 1009.3
20260905071715 64 0.0 0.0 0.00 0.00 0.00 76 1009.2
20260905070215 63 0.0 0.0 0.00 0.00 0.00 77 1009.1
20260905064716 62 0.0 0.0 0.00 0.00 0.00 79 1009.2
20260905063215 61 0.0 0.0 0.00 0.00 0.00 80 1009.1
20260905061715 61 0.0 0.0 0.00 0.00 0.00 81 1008.5
20260905060215 60 0.0 0.0 0.00 0.00 0.00 82 1008.7
20260905054715 60 0.0 0.0 0.00 0.00 0.00 83 1008.7
20260905053216 59 0.0 0.0 0.00 0.00 0.00 84 1008.8
20260905051715 59 0.0 0.0 0.00 0.00 0.00 84 1008.3
20260905050215 59 0.0 0.0 0.00 0.00 0.00 85 1008.2
20260905044716 58 0.0 0.0 0.00 0.00 0.00 85 1008.1
20260905043216 58 0.0 0.0 0.00 0.00 0.00 85 1007.9
20260905041716 59 0.0 0.0 0.00 0.00 0.00 85 1008.2
20260905040216 59 0.0 0.0 0.00 0.00 0.00 85 1007.7
20260905034716 59 0.0 0.0 0.00 0.00 0.00 85 1007.4
20260905033215 59 0.0 0.0 0.00 0.00 0.00 85 1007.4
20260905031715 60 0.0 0.0 0.00 0.00 0.00 85 1006.8
20260905030215 60 0.0 0.0 0.00 0.00 0.00 85 1006.9
20260905024715 60 0.0 0.0 0.00 0.00 0.00 84 1006.6
20260905023215 60 0.0 0.0 0.00 0.00 0.00 84 1006.6
20260905021716 60 0.0 0.0 0.00 0.00 0.00 84 1006.4
20260905020216 60 0.0 0.0 0.00 0.00 0.00 85 1006.3
20260905014716 60 0.0 0.0 0.00 0.00 0.00 84 1006.4
20260905013216 61 0.0 0.0 0.00 0.00 0.00 84 1006.2
20260905011715 61 0.0 0.0 0.00 0.00 0.00 85 1006.5
20260905010215 61 0.0 0.0 0.00 0.00 0.00 85 1006.4
20260905004715 61 0.0 0.0 0.00 0.00 0.00 85 1005.9
20260905003215 61 0.0 0.0 0.00 0.00 0.00 85 1005.9
20260905001715 61 0.0 0.0 0.00 0.00 0.00 86 1006.0
20260905000215 61 0.0 0.0 0.00 0.00 0.00 86 1005.7
20260904234716 62 0.0 0.0 0.00 0.00 0.00 86 1006.2
20260904233216 62 0.0 0.0 0.00 0.00 0.00 86 1005.6
20260904231716 62 0.0 0.0 0.00 0.00 0.00 86 1005.6
20260904230215 62 0.0 0.0 0.00 0.00 0.00 86 1005.9
20260904224715 62 0.0 0.0 0.00 0.00 0.00 87 1005.6
20260904223216 62 0.0 0.0 0.00 0.00 0.00 87 1005.4
20260904221716 62 0.0 0.0 0.00 0.00 0.00 87 1005.1
20260904220216 62 0.0 0.0 0.00 0.00 0.00 88 1004.5
20260904214715 62 0.0 0.0 0.00 0.00 0.00 87 1004.3
20260904213216 62 0.0 0.0 0.00 0.00 0.00 87 1004.1
20260904211716 63 0.0 0.0 0.00 0.00 0.00 87 1003.7
20260904210215 63 0.0 0.0 0.00 0.00 0.00 88 1003.4
20260904204715 63 0.0 0.0 0.00 0.00 0.00 88 1003.6
20260904203215 63 0.0 0.0 0.00 0.00 0.00 88 1003.2
20260904201715 62 0.0 0.0 0.00 0.00 0.00 88 1002.8
20260904200216 62 0.0 0.0 0.00 0.00 0.00 88 1002.9
20260904194715 62 0.0 0.0 0.00 0.00 0.00 88 1002.9
20260904193216 62 0.0 0.0 0.00 0.00 0.00 88 1002.8
20260904191716 62 0.0 0.0 0.00 0.00 0.00 88 1002.7
20260904190216 62 0.0 0.0 0.00 0.00 0.00 88 1003.2
20260904184715 61 0.0 0.0 0.00 0.00 0.00 88 1002.4
20260904183216 61 0.0 0.0 0.00 0.00 0.00 87 1002.6
20260904181715 62 0.0 0.0 0.00 0.00 0.00 86 1002.1
20260904180215 63 0.0 0.0 0.00 0.00 0.00 85 1001.9
20260904174715 64 0.0 0.0 0.00 0.00 0.00 84 1001.5
20260904173216 65 0.0 0.0 0.00 0.00 0.00 84 1001.6
20260904171716 66 0.0 0.0 0.00 0.00 0.00 81 1001.6
20260904170215 66 0.0 0.0 0.00 0.00 0.00 81 1001.6
20260904164716 66 0.0 0.0 0.00 0.00 0.00 82 1001.8
20260904163216 67 0.0 0.0 0.00 0.00 0.00 83 1001.8
20260904161716 68 0.0 0.0 0.00 0.00 0.00 85 1001.2
20260904160215 68 0.0 0.0 0.00 0.00 0.00 85 1001.2
20260904154715 68 0.0 0.0 0.00 0.00 0.00 85 1001.2
20260904153215 68 0.0 0.0 0.00 0.00 0.00 85 1001.4
20260904151715 69 0.0 0.0 0.00 0.00 0.00 85 1001.0
20260904150216 68 0.0 0.0 0.00 0.00 0.00 85 1000.4
20260904144716 72 0.0 0.0 0.00 0.00 0.00 76 997.4
20260904143216 78 0.0 0.0 0.00 0.00 0.00 62
20260904141715 78 0.0 0.0 0.00 0.00 0.00 62 998.5
20260904140215 78 0.0 0.0 0.00 0.00 0.00 62 999.3
20260904134715 78 0.0 0.0 0.00 0.00 0.00 63 999.2
20260904133216 77 0.0 0.0 0.00 0.00 0.00 65 999.7
20260904131716 76 0.0 0.0 0.00 0.00 0.00 66 1000.1
20260904130215 76 0.0 0.0 0.00 0.00 0.00 67 1000.5
20260904124716 75 0.0 0.0 0.00 0.00 0.00 67 1000.6
20260904123216 75 0.0 0.0 0.00 0.00 0.00 67 1000.5
20260904121716 75 0.0 0.0 0.00 0.00 0.00 67 1000.8
20260904120216 75 0.0 0.0 0.00 0.00 0.00 67 1001.2
20260904114715 75 0.0 0.0 0.00 0.00 0.00 67 1001.6
20260904113215 75 0.0 0.0 0.00 0.00 0.00 68 1001.7
20260904111716 75 0.0 0.0 0.00 0.00 0.00 68 1002.2
20260904110215 74 0.0 0.0 0.00 0.00 0.00 69 1002.5
20260904104716 74 0.0 0.0 0.00 0.00 0.00 70 1002.7
20260904103216 74 0.0 0.0 0.00 0.00 0.00 71 1003.0
20260904101715 73 0.0 0.0 0.00 0.00 0.00 71 1003.1
20260904100216 73 0.0 0.0 0.00 0.00 0.00 72 1003.5
20260904094715 73 0.0 0.0 0.00 0.00 0.00 72 1003.6
20260904093215 72 0.0 0.0 0.00 0.00 0.00 73 1003.4
20260904091715 72 0.0 0.0 0.00 0.00 0.00 73 1004.0
20260904090216 72 0.0 0.0 0.00 0.00 0.00 74 1004.2
20260904084716 71 0.0 0.0 0.00 0.00 0.00 76 1004.1
20260904083215 71 0.0 0.0 0.00 0.00 0.00 77 1004.5